DB0OHL Weather Reports


time (UTC)temp
C
wind
direction
speed
KPH
gust
KPH
rain 1hr
cm
rain 24hr
cm
rain mn
cm
humidity
%
barometer
mb
20260502195552 14 14.5 20.9 0.13 0.36 0.36 90 1014.6
20260502194550 13 14.5 22.5 0.10 0.33 0.33 94 1014.9
20260502193547 13 19.3 37.0 0.10 0.30 0.30 95 1015.1
20260502192545 14 20.9 43.5 0.10 0.30 0.30 96 1015.1
20260502191542 15 25.7 48.3 0.23 0.23 0.23 92 1014.9
20260502190539 15 24.1 66.0 0.23 0.23 0.23 86 1014.3
20260502185537 15 1.6 3.2 0.23 0.23 0.23 87 1013.8
20260502184534 15 6.4 17.7 0.23 0.23 0.23 84 1013.5
20260502183532 16 3.2 12.9 0.20 0.20 0.20 86 1013.6
20260502182529 20 8.0 17.7 0.20 0.20 0.20 84 1013.9
20260502181527 20 0.0 3.2 0.00 0.00 0.00 69 1013.5
20260502180524 20 0.0 4.8 0.00 0.00 0.00 66 1013.3
20260502163602 23 3.2 9.7 0.00 0.00 0.00 64 1014.3
20260502162559 22 0.0 6.4 0.00 0.00 0.00 65 1014.5
20260502161557 21 1.6 6.4 0.00 0.00 0.00 68 1014.5
20260502160554 21 1.6 4.8 0.00 0.00 0.00 74 1014.9
20260502151541 18 4.8 12.9 0.00 0.00 0.00 80 1015.2
20260502150539 18 4.8 12.9 0.00 0.00 0.00 77 1015.4
20260502130608 24 11.3 33.8 0.00 0.00 0.00 57 1016.2
20260502123601 23 6.4 27.4 0.00 0.00 0.00 59 1016.6
20260502122558 23 6.4 20.9 0.00 0.00 0.00 58 1016.7
20260502121556 23 4.8 17.7 0.00 0.00 0.00 58 1016.7
20260502120553 23 6.4 14.5 0.00 0.00 0.00 59 1016.9
20260502115551 23 4.8 12.9 0.00 0.00 0.00 58 1017.1
20260502114548 23 4.8 14.5 0.00 0.00 0.00 57 1017.0
20260502113546 23 6.4 22.5 0.00 0.00 0.00 57 1017.3
20260502112543 23 4.8 20.9 0.00 0.00 0.00 58 1017.3
20260502111541 22 6.4 17.7 0.00 0.00 0.00 58 1017.5
20260502110538 22 3.2 19.3 0.00 0.00 0.00 58 1017.5
20260502105535 22 4.8 16.1 0.00 0.00 0.00 59 1017.6
20260502104533 22 3.2 12.9 0.00 0.00 0.00 58 1017.7
20260502103530 22 3.2 12.9 0.00 0.00 0.00 57 1017.7
20260502102528 22 6.4 16.1 0.00 0.00 0.00 57 1017.9
20260502101525 22 6.4 19.3 0.00 0.00 0.00 56 1018.1
20260502100523 21 3.2 11.3 0.00 0.00 0.00 57 1018.2
20260502090608 21 4.8 17.7 0.00 0.00 0.00 55 1018.4
20260502070537 17 1.6 9.7 0.00 0.00 0.00 55 1018.6
20260502065535 17 3.2 12.9 0.00 0.00 0.00 56 1018.7
20260502064532 16 3.2 8.0 0.00 0.00 0.00 57 1018.8
20260502063530 16 4.8 11.3 0.00 0.00 0.00 59 1018.9
20260502062527 16 4.8 17.7 0.00 0.00 0.00 59 1018.9
20260502061525 16 4.8 16.1 0.00 0.00 0.00 59 1018.9
20260502060522 15 4.8 17.7 0.00 0.00 0.00 58 1018.8
20260502055520 15 3.2 6.4 0.00 0.00 0.00 58 1018.8
20260502054517 15 3.2 8.0 0.00 0.00 0.00 59 1018.9
20260502053515 15 4.8 9.7 0.00 0.00 0.00 59 1018.8
20260502052612 14 4.8 11.3 0.00 0.00 0.00 59 1018.8
20260502051610 14 4.8 12.9 0.00 0.00 0.00 59 1019.0
20260502050607 15 4.8 12.9 0.00 0.00 0.00 58 1018.8
20260502045605 14 4.8 16.1 0.00 0.00 0.00 58 1018.8
20260502044602 14 4.8 11.3 0.00 0.00 0.00 59 1018.7
20260502043600 14 4.8 11.3 0.00 0.00 0.00 59 1018.7
20260502042557 14 4.8 12.9 0.00 0.00 0.00 58 1018.9
20260502041555 14 4.8 9.7 0.00 0.00 0.00 58 1018.8
20260502040552 14 3.2 9.7 0.00 0.00 0.00 58 1018.9
20260502035550 14 4.8 12.9 0.00 0.00 0.00 58 1019.1
20260502034547 14 3.2 12.9 0.00 0.00 0.00 58 1019.0
20260502033544 14 4.8 11.3 0.00 0.00 0.00 58 1019.2
20260502032542 15 4.8 9.7 0.00 0.00 0.00 58 1019.2
20260502031539 15 3.2 9.7 0.00 0.00 0.00 57 1019.2
20260502030537 15 4.8 11.3 0.00 0.00 0.00 56 1019.2
20260502025534 15 4.8 12.9 0.00 0.00 0.00 56 1019.4
20260502024532 15 4.8 11.3 0.00 0.00 0.00 56 1019.4
20260502023529 15 4.8 17.7 0.00 0.00 0.00 56 1019.4
20260502022527 15 3.2 20.9 0.00 0.00 0.00 56 1019.5
20260502021524 15 4.8 12.9 0.00 0.00 0.00 55 1019.5
20260502020522 15 4.8 17.7 0.00 0.00 0.00 55 1019.4
20260502015519 15 4.8 14.5 0.00 0.00 0.00 55 1019.6
20260502014517 15 4.8 14.5 0.00 0.00 0.00 55 1019.8
20260502013614 15 4.8 16.1 0.00 0.00 0.00 56 1019.8
20260502012612 15 4.8 12.9 0.00 0.00 0.00 56 1019.9
20260502011609 15 4.8 12.9 0.00 0.00 0.00 56 1019.9
20260502010607 15 4.8 11.3 0.00 0.00 0.00 56 1020.1
20260502005604 15 4.8 11.3 0.00 0.00 0.00 55 1020.1
20260502004602 15 4.8 16.1 0.00 0.00 0.00 55 1020.2
20260502003559 15 4.8 12.9 0.00 0.00 0.00 55 1020.3
20260502002557 15 4.8 8.0 0.00 0.00 0.00 54 1020.3
20260502001554 15 4.8 11.3 0.00 0.00 0.00 54 1020.4
20260502000551 16 4.8 12.9 0.00 0.00 0.00 53 1020.5
20260501235549 16 6.4 14.5 0.00 0.00 0.00 52 1020.6
20260501234546 16 4.8 14.5 0.00 0.00 0.00 52 1020.6
20260501233544 16 4.8 14.5 0.00 0.00 0.00 52 1020.8
20260501232541 16 6.4 12.9 0.00 0.00 0.00 51 1020.7
20260501231539 16 6.4 14.5 0.00 0.00 0.00 51 1020.6
20260501230536 16 6.4 19.3 0.00 0.00 0.00 51 1020.7
20260501225534 17 4.8 12.9 0.00 0.00 0.00 50 1020.8
20260501224531 17 6.4 22.5 0.00 0.00 0.00 49 1020.8
20260501223529 17 6.4 16.1 0.00 0.00 0.00 48 1020.9
20260501222526 17 6.4 19.3 0.00 0.00 0.00 47 1020.9
20260501221523 17 6.4 17.7 0.00 0.00 0.00 47 1021.1
20260501220521 18 6.4 19.3 0.00 0.00 0.00 46 1021.0
20260501215518 18 6.4 19.3 0.00 0.00 0.00 46 1021.1
20260501214516 17 4.8 16.1 0.00 0.00 0.00 46 1020.9
20260501213613 18 4.8 12.9 0.00 0.00 0.00 46 1021.1
20260501212611 18 4.8 12.9 0.00 0.00 0.00 45 1021.1
20260501211608 18 6.4 16.1 0.00 0.00 0.00 45 1021.1
20260501210606 18 6.4 20.9 0.00 0.00 0.00 44 1021.1
20260501205603 19 8.0 24.1 0.00 0.00 0.00 43 1021.1
20260501204601 19 8.0 17.7 0.00 0.00 0.00 42 1021.4
20260501203558 19 9.7 22.5 0.00 0.00 0.00 42 1021.3
20260501202556 19 9.7 27.4 0.00 0.00 0.00 41 1021.3
20260501201553 20 12.9 25.7 0.00 0.00 0.00 41 1021.3
20260501200551 19 9.7 24.1 0.00 0.00 0.00 41 1021.3